| time (UTC) | temp F | wind direction | speed knots | gust knots | rain 1hr in | rain 24hr in | rain mn in | humidity % | barometer mb |
| 20260507210526 | 65 | 53 | 2.6 | 9.6 | 0.00 | 0.00 | 0.00 | 66 | 1013.9 |
| 20260507210024 | 65 | 62 | 6.1 | 9.6 | 0.00 | 0.00 | 0.00 | 66 | 1014.0 |
| 20260507205524 | 65 | 84 | 4.3 | 7.8 | 0.00 | 0.00 | 0.00 | 67 | 1013.8 |
| 20260507205024 | 65 | 40 | 3.5 | 9.6 | 0.00 | 0.00 | 0.00 | 67 | 1013.8 |
| 20260507204524 | 65 | 74 | 7.8 | 9.6 | 0.00 | 0.00 | 0.00 | 67 | 1014.0 |
| 20260507204023 | 65 | 77 | 3.5 | 7.0 | 0.00 | 0.00 | 0.00 | 68 | 1013.9 |
| 20260507203523 | 64 | 58 | 3.5 | 7.0 | 0.00 | 0.00 | 0.00 | 69 | 1014.1 |
| 20260507203023 | 64 | 56 | 6.1 | 10.4 | 0.00 | 0.00 | 0.00 | 70 | 1014.3 |
| 20260507201533 | 64 | 33 | 5.2 | 9.6 | 0.00 | 0.00 | 0.00 | 70 | 1014.6 |
| 20260507201032 | 63 | 23 | 3.5 | 7.8 | 0.00 | 0.00 | 0.00 | 72 | 1014.7 |
| 20260507200532 | 63 | 58 | 3.5 | 8.7 | 0.00 | 0.00 | 0.00 | 72 | 1014.5 |
| 20260507200032 | 63 | 44 | 6.1 | 8.7 | 0.00 | 0.00 | 0.00 | 73 | 1014.6 |
| 20260507195531 | 63 | 44 | 4.3 | 7.8 | 0.00 | 0.00 | 0.00 | 73 | 1014.6 |
| 20260507195031 | 63 | 58 | 4.3 | 8.7 | 0.00 | 0.00 | 0.00 | 74 | 1014.7 |
| 20260507194531 | 63 | 21 | 6.1 | 8.7 | 0.00 | 0.00 | 0.00 | 74 | 1014.7 |
| 20260507194031 | 63 | 28 | 4.3 | 8.7 | 0.00 | 0.00 | 0.00 | 74 | 1014.8 |
| 20260507193531 | 63 | 44 | 5.2 | 8.7 | 0.00 | 0.00 | 0.00 | 74 | 1015.0 |
| 20260507193031 | 62 | 44 | 4.3 | 10.4 | 0.00 | 0.00 | 0.00 | 76 | 1015.1 |
| 20260507191555 | 62 | 41 | 5.2 | 10.4 | 0.00 | 0.00 | 0.00 | 76 | 1015.1 |
| 20260507191053 | 62 | 10 | 7.8 | 10.4 | 0.00 | 0.00 | 0.00 | 77 | 1015.2 |
| 20260507190553 | 62 | 50 | 5.2 | 8.7 | 0.00 | 0.00 | 0.00 | 77 | 1015.1 |
| 20260507190054 | 62 | 33 | 4.3 | 7.8 | 0.00 | 0.00 | 0.00 | 78 | 1015.2 |
| 20260507185552 | 62 | 53 | 3.5 | 9.6 | 0.00 | 0.00 | 0.00 | 78 | 1015.4 |
| 20260507185053 | 61 | 22 | 5.2 | 10.4 | 0.00 | 0.00 | 0.00 | 79 | 1015.4 |
| 20260507184553 | 61 | 16 | 6.1 | 10.4 | 0.00 | 0.00 | 0.00 | 78 | 1015.5 |
| 20260507184053 | 62 | 320 | 3.5 | 7.8 | 0.00 | 0.00 | 0.00 | 79 | 1015.6 |
| 20260507183555 | 61 | 28 | 4.3 | 8.7 | 0.00 | 0.00 | 0.00 | 79 | 1015.6 |
| 20260507183052 | 61 | 16 | 7.0 | 10.4 | 0.00 | 0.00 | 0.00 | 80 | 1015.5 |
| 20260507181538 | 61 | 23 | 6.1 | 10.4 | 0.00 | 0.00 | 0.00 | 80 | 1015.6 |
| 20260507181037 | 61 | 25 | 7.0 | 11.3 | 0.00 | 0.00 | 0.00 | 80 | 1015.8 |
| 20260507180543 | 61 | 31 | 8.7 | 11.3 | 0.00 | 0.00 | 0.00 | 80 | 1015.7 |
| 20260507180036 | 61 | 16 | 7.8 | 11.3 | 0.00 | 0.00 | 0.00 | 80 | 1015.9 |
| 20260507175537 | 61 | 44 | 7.8 | 11.3 | 0.00 | 0.00 | 0.00 | 79 | 1015.8 |
| 20260507175036 | 61 | 35 | 7.0 | 10.4 | 0.00 | 0.00 | 0.00 | 80 | 1015.8 |
| 20260507174546 | 61 | 39 | 6.1 | 10.4 | 0.00 | 0.00 | 0.00 | 80 | 1016.1 |
| 20260507174035 | 60 | 16 | 6.1 | 11.3 | 0.00 | 0.00 | 0.00 | 81 | 1015.9 |
| 20260507173535 | 60 | 31 | 6.1 | 9.6 | 0.00 | 0.00 | 0.00 | 81 | 1016.1 |
| 20260507173035 | 61 | 27 | 6.1 | 10.4 | 0.00 | 0.00 | 0.00 | 81 | 1016.2 |
| 20260507171544 | 60 | 41 | 7.8 | 10.4 | 0.00 | 0.00 | 0.00 | 81 | 1016.2 |
| 20260507171033 | 60 | 33 | 7.0 | 11.3 | 0.00 | 0.00 | 0.00 | 82 | 1016.2 |
| 20260507170533 | 60 | 15 | 7.0 | 12.2 | 0.00 | 0.00 | 0.00 | 83 | 1016.1 |
| 20260507170033 | 60 | 12 | 8.7 | 12.2 | 0.00 | 0.00 | 0.00 | 83 | 1016.1 |
| 20260507165535 | 60 | 6 | 7.0 | 11.3 | 0.00 | 0.00 | 0.00 | 84 | 1016.0 |
| 20260507165032 | 60 | 29 | 7.0 | 9.6 | 0.00 | 0.00 | 0.00 | 86 | 1016.2 |
| 20260507164534 | 59 | 44 | 6.1 | 9.6 | 0.00 | 0.00 | 0.00 | 87 | 1016.1 |
| 20260507164031 | 59 | 29 | 6.1 | 12.2 | 0.00 | 0.00 | 0.00 | 87 | 1016.2 |
| 20260507163531 | 59 | 21 | 7.8 | 12.2 | 0.00 | 0.00 | 0.00 | 86 | 1016.1 |
| 20260507163031 | 59 | 24 | 7.0 | 12.2 | 0.00 | 0.00 | 0.00 | 86 | 1016.2 |
| 20260507161520 | 60 | 9 | 7.0 | 11.3 | 0.00 | 0.00 | 0.00 | 86 | 1016.0 |
| 20260507161018 | 60 | 26 | 7.0 | 12.2 | 0.00 | 0.00 | 0.00 | 86 | 1016.1 |
| 20260507160516 | 60 | 33 | 7.8 | 12.2 | 0.00 | 0.00 | 0.00 | 86 | 1016.1 |
| 20260507160016 | 60 | 31 | 7.8 | 11.3 | 0.00 | 0.00 | 0.00 | 86 | 1015.9 |
| 20260507155513 | 60 | 37 | 8.7 | 11.3 | 0.00 | 0.00 | 0.00 | 85 | 1015.9 |
| 20260507155014 | 60 | 44 | 5.2 | 11.3 | 0.00 | 0.00 | 0.00 | 86 | 1015.7 |
| 20260507154517 | 60 | 33 | 6.1 | 12.2 | 0.00 | 0.00 | 0.00 | 86 | 1015.7 |
| 20260507154011 | 60 | 31 | 7.8 | 12.2 | 0.00 | 0.00 | 0.00 | 85 | 1015.7 |
| 20260507153511 | 60 | 31 | 6.1 | 9.6 | 0.00 | 0.00 | 0.00 | 85 | 1015.7 |
| 20260507153015 | 60 | 25 | 6.1 | 10.4 | 0.00 | 0.00 | 0.00 | 87 | 1015.6 |
| 20260507151558 | 60 | 34 | 6.1 | 10.4 | 0.00 | 0.00 | 0.00 | 87 | 1015.4 |
| 20260507151053 | 60 | 36 | 7.0 | 11.3 | 0.00 | 0.00 | 0.00 | 88 | 1015.4 |
| 20260507150553 | 60 | 27 | 7.8 | 12.2 | 0.00 | 0.00 | 0.00 | 88 | 1015.4 |
| 20260507150052 | 60 | 14 | 5.2 | 8.7 | 0.00 | 0.00 | 0.00 | 88 | 1015.3 |
| 20260507145552 | 60 | 27 | 5.2 | 8.7 | 0.00 | 0.00 | 0.00 | 87 | 1015.2 |
| 20260507145051 | 60 | 60 | 3.5 | 10.4 | 0.00 | 0.00 | 0.00 | 87 | 1015.3 |
| 20260507144551 | 60 | 31 | 5.2 | 10.4 | 0.00 | 0.00 | 0.00 | 87 | 1015.4 |
| 20260507144050 | 60 | 54 | 4.3 | 8.7 | 0.00 | 0.00 | 0.00 | 87 | 1015.4 |
| 20260507143550 | 60 | 41 | 4.3 | 8.7 | 0.00 | 0.00 | 0.00 | 87 | 1015.3 |
| 20260507143052 | 60 | 6.1 | 0.0 | 0.00 | 0.00 | 0.00 | 87 | 1015.3 | |
| 20260507141534 | 60 | 16 | 4.3 | 11.3 | 0.00 | 0.00 | 0.00 | 87 | 1015.0 |
| 20260507141032 | 60 | 23 | 7.8 | 10.4 | 0.00 | 0.00 | 0.00 | 87 | 1014.9 |
| 20260507140531 | 60 | 1 | 5.2 | 13.9 | 0.00 | 0.00 | 0.00 | 87 | 1014.8 |
| 20260507140040 | 60 | 8 | 7.0 | 15.6 | 0.00 | 0.00 | 0.00 | 86 | 1014.6 |
| 20260507135529 | 60 | 37 | 10.4 | 15.6 | 0.00 | 0.00 | 0.00 | 86 | 1014.5 |
| 20260507135030 | 60 | 19 | 10.4 | 17.4 | 0.00 | 0.00 | 0.00 | 86 | 1014.5 |
| 20260507134530 | 60 | 23 | 11.3 | 15.6 | 0.00 | 0.00 | 0.00 | 86 | 1014.6 |
| 20260507134027 | 61 | 29 | 10.4 | 14.8 | 0.00 | 0.00 | 0.00 | 86 | 1014.4 |
| 20260507133526 | 61 | 10 | 10.4 | 13.9 | 0.00 | 0.00 | 0.00 | 86 | 1014.3 |
| 20260507133026 | 62 | 21 | 10.4 | 15.6 | 0.00 | 0.00 | 0.00 | 82 | 1014.3 |
| 20260507131512 | 63 | 48 | 9.6 | 17.4 | 0.00 | 0.00 | 0.00 | 81 | 1014.2 |
| 20260507131008 | 63 | 11 | 8.7 | 17.4 | 0.00 | 0.00 | 0.00 | 79 | 1014.2 |
| 20260507130507 | 63 | 22 | 10.4 | 14.8 | 0.00 | 0.00 | 0.00 | 78 | 1014.0 |
| 20260507130004 | 64 | 28 | 10.4 | 15.6 | 0.00 | 0.00 | 0.00 | 76 | 1013.9 |
| 20260507125506 | 64 | 39 | 10.4 | 16.5 | 0.00 | 0.00 | 0.00 | 76 | 1013.6 |
| 20260507125003 | 64 | 15 | 10.4 | 15.6 | 0.00 | 0.00 | 0.00 | 76 | 1013.5 |
| 20260507124503 | 64 | 16 | 10.4 | 15.6 | 0.00 | 0.00 | 0.00 | 76 | 1013.5 |
| 20260507124002 | 64 | 14 | 11.3 | 16.5 | 0.00 | 0.00 | 0.00 | 76 | 1013.4 |
| 20260507123600 | 64 | 19 | 10.4 | 16.5 | 0.00 | 0.00 | 0.00 | 76 | 1013.2 |
| 20260507123105 | 65 | 10.4 | 0.0 | 0.00 | 0.00 | 0.00 | 73 | 1012.8 | |
| 20260507121536 | 65 | 16 | 10.4 | 14.8 | 0.00 | 0.00 | 0.00 | 73 | 1012.7 |
| 20260507121036 | 65 | 12 | 8.7 | 15.6 | 0.00 | 0.00 | 0.00 | 72 | 1012.6 |
| 20260507120534 | 65 | 14 | 10.4 | 15.6 | 0.00 | 0.00 | 0.00 | 72 | 1012.7 |
| 20260507120038 | 66 | 35 | 9.6 | 14.8 | 0.00 | 0.00 | 0.00 | 71 | 1012.8 |
| 20260507115532 | 66 | 359 | 10.4 | 14.8 | 0.00 | 0.00 | 0.00 | 70 | 1012.6 |
| 20260507115031 | 66 | 8 | 6.1 | 12.2 | 0.00 | 0.00 | 0.00 | 70 | 1012.4 |
| 20260507114529 | 66 | 21 | 7.8 | 12.2 | 0.00 | 0.00 | 0.00 | 70 | 1012.3 |
| 20260507114032 | 66 | 33 | 5.2 | 13.9 | 0.00 | 0.00 | 0.00 | 70 | 1012.3 |
| 20260507113528 | 66 | 29 | 7.8 | 13.9 | 0.00 | 0.00 | 0.00 | 70 | 1012.4 |
| 20260507113057 | 66 | 10.4 | 0.0 | 0.00 | 0.00 | 0.00 | 71 | 1012.2 | |
| 20260507111518 | 66 | 21 | 10.4 | 14.8 | 0.00 | 0.00 | 0.00 | 71 | 1012.0 |
| 20260507111016 | 67 | 29 | 8.7 | 15.6 | 0.00 | 0.00 | 0.00 | 71 | 1012.0 |
| 20260507110516 | 67 | 33 | 12.2 | 15.6 | 0.00 | 0.00 | 0.00 | 71 | 1011.9 |
| 20260507110015 | 67 | 23 | 10.4 | 16.5 | 0.00 | 0.00 | 0.00 | 71 | 1011.8 |
| 20260507105515 | 67 | 21 | 11.3 | 15.6 | 0.00 | 0.00 | 0.00 | 71 | 1011.7 |
| 20260507105012 | 67 | 4 | 9.6 | 12.2 | 0.00 | 0.00 | 0.00 | 71 | 1011.6 |
| 20260507104517 | 67 | 9 | 7.8 | 13.0 | 0.00 | 0.00 | 0.00 | 72 | 1011.5 |
| 20260507104012 | 67 | 25 | 8.7 | 13.0 | 0.00 | 0.00 | 0.00 | 72 | 1011.5 |
| 20260507103510 | 68 | 23 | 8.7 | 13.0 | 0.00 | 0.00 | 0.00 | 72 | 1011.6 |
| 20260507103010 | 68 | 7.8 | 0.0 | 0.00 | 0.00 | 0.00 | 73 | 1011.6 | |
| 20260507101600 | 68 | 24 | 7.0 | 11.3 | 0.00 | 0.00 | 0.00 | 73 | 1011.2 |
| 20260507101101 | 68 | 37 | 6.1 | 13.0 | 0.00 | 0.00 | 0.00 | 73 | 1011.2 |
| 20260507100558 | 68 | 50 | 8.7 | 13.0 | 0.00 | 0.00 | 0.00 | 73 | 1011.2 |
| 20260507100100 | 68 | 25 | 6.1 | 12.2 | 0.00 | 0.00 | 0.00 | 73 | 1011.1 |
| 20260507095556 | 69 | 35 | 8.7 | 12.2 | 0.00 | 0.00 | 0.00 | 73 | 1011.0 |
| 20260507095054 | 69 | 29 | 6.1 | 9.6 | 0.00 | 0.00 | 0.00 | 72 | 1011.1 |
| 20260507094605 | 69 | 36 | 6.1 | 9.6 | 0.00 | 0.00 | 0.00 | 72 | 1011.0 |
| 20260507094053 | 69 | 39 | 6.1 | 8.7 | 0.00 | 0.00 | 0.00 | 72 | 1011.0 |
| 20260507093553 | 69 | 58 | 3.5 | 8.7 | 0.00 | 0.00 | 0.00 | 72 | 1010.9 |
| 20260507093052 | 69 | 6.1 | 0.0 | 0.00 | 0.00 | 0.00 | 71 | 1010.9 | |
| 20260507091551 | 69 | 37 | 5.2 | 9.6 | 0.00 | 0.00 | 0.00 | 71 | 1010.8 |
| 20260507091051 | 69 | 50 | 5.2 | 11.3 | 0.00 | 0.00 | 0.00 | 70 | 1010.9 |
| 20260507090549 | 70 | 39 | 6.1 | 11.3 | 0.00 | 0.00 | 0.00 | 69 | 1011.0 |
| 20260507090048 | 70 | 23 | 7.0 | 11.3 | 0.00 | 0.00 | 0.00 | 69 | 1010.8 |
| 20260507085546 | 70 | 24 | 7.8 | 12.2 | 0.00 | 0.00 | 0.00 | 67 | 1010.8 |
| 20260507085046 | 70 | 14 | 7.0 | 12.2 | 0.00 | 0.00 | 0.00 | 66 | 1010.8 |
| 20260507084554 | 71 | 13 | 7.8 | 11.3 | 0.00 | 0.00 | 0.00 | 65 | 1010.8 |
| 20260507084043 | 71 | 17 | 7.0 | 9.6 | 0.00 | 0.00 | 0.00 | 63 | 1010.8 |
| 20260507083543 | 71 | 37 | 6.1 | 9.6 | 0.00 | 0.00 | 0.00 | 63 | 1010.8 |
| 20260507083042 | 71 | 6.1 | 0.0 | 0.00 | 0.00 | 0.00 | 61 | 1011.0 | |
| 20260507081546 | 72 | 45 | 7.0 | 8.7 | 0.00 | 0.00 | 0.00 | 61 | 1010.8 |
| 20260507081046 | 72 | 36 | 6.1 | 10.4 | 0.00 | 0.00 | 0.00 | 60 | 1010.8 |
| 20260507080545 | 72 | 37 | 6.1 | 11.3 | 0.00 | 0.00 | 0.00 | 58 | 1010.6 |
| 20260507080042 | 72 | 32 | 6.1 | 13.0 | 0.00 | 0.00 | 0.00 | 56 | 1010.7 |
| 20260507075544 | 73 | 39 | 8.7 | 13.0 | 0.00 | 0.00 | 0.00 | 56 | 1010.8 |
| 20260507075040 | 73 | 25 | 8.7 | 13.0 | 0.00 | 0.00 | 0.00 | 54 | 1010.7 |
| 20260507074542 | 73 | 23 | 5.2 | 9.6 | 0.00 | 0.00 | 0.00 | 52 | 1010.9 |
| 20260507074038 | 73 | 44 | 3.5 | 7.0 | 0.00 | 0.00 | 0.00 | 51 | 1010.9 |
| 20260507073537 | 73 | 50 | 3.5 | 7.0 | 0.00 | 0.00 | 0.00 | 50 | 1010.9 |
| 20260507073037 | 73 | 3.5 | 0.0 | 0.00 | 0.00 | 0.00 | 48 | 1010.8 | |
| 20260507071524 | 73 | 61 | 3.5 | 7.0 | 0.00 | 0.00 | 0.00 | 48 | 1010.7 |
| 20260507071024 | 73 | 15 | 3.5 | 6.1 | 0.00 | 0.00 | 0.00 | 47 | 1010.7 |
| 20260507070524 | 73 | 44 | 1.7 | 4.3 | 0.00 | 0.00 | 0.00 | 47 | 1010.8 |
| 20260507070024 | 74 | 39 | 2.6 | 4.3 | 0.00 | 0.00 | 0.00 | 46 | 1010.8 |
| 20260507065522 | 74 | 42 | 2.6 | 6.1 | 0.00 | 0.00 | 0.00 | 46 | 1010.9 |
| 20260507065021 | 74 | 31 | 3.5 | 6.1 | 0.00 | 0.00 | 0.00 | 46 | 1011.0 |
| 20260507064521 | 74 | 28 | 1.7 | 4.3 | 0.00 | 0.00 | 0.00 | 46 | 1010.9 |
| 20260507064020 | 74 | 51 | 0.9 | 4.3 | 0.00 | 0.00 | 0.00 | 46 | 1010.9 |
| 20260507063520 | 74 | 68 | 2.6 | 4.3 | 0.00 | 0.00 | 0.00 | 45 | 1010.8 |
| 20260507063019 | 74 | 0.0 | 0.0 | 0.00 | 0.00 | 0.00 | 44 | 1010.8 | |
| 20260507061534 | 74 | 48 | 2.6 | 3.5 | 0.00 | 0.00 | 0.00 | 44 | 1010.8 |
| 20260507061026 | 74 | 45 | 1.7 | 3.5 | 0.00 | 0.00 | 0.00 | 44 | 1010.8 |
| 20260507060526 | 74 | 54 | 1.7 | 3.5 | 0.00 | 0.00 | 0.00 | 44 | 1010.7 |
| 20260507060034 | 74 | 108 | 0.9 | 3.5 | 0.00 | 0.00 | 0.00 | 43 | 1010.7 |
| 20260507055525 | 74 | 112 | 0.9 | 3.5 | 0.00 | 0.00 | 0.00 | 43 | 1010.6 |
| 20260507055022 | 74 | 83 | 0.9 | 2.6 | 0.00 | 0.00 | 0.00 | 42 | 1010.4 |
| 20260507054534 | 75 | 65 | 0.0 | 0.0 | 0.00 | 0.00 | 0.00 | 42 | 1010.4 |
| 20260507054022 | 75 | 64 | 0.0 | 0.0 | 0.00 | 0.00 | 0.00 | 42 | 1010.4 |
| 20260507053620 | 75 | 62 | 0.0 | 0.0 | 0.00 | 0.00 | 0.00 | 42 | 1010.4 |
| 20260507053018 | 75 | 3.5 | 0.0 | 0.00 | 0.00 | 0.00 | 41 | 1010.3 | |
| 20260507051545 | 75 | 100 | 3.5 | 7.0 | 0.00 | 0.00 | 0.00 | 41 | 1010.3 |
| 20260507051045 | 76 | 123 | 1.7 | 4.3 | 0.00 | 0.00 | 0.00 | 40 | 1010.3 |
| 20260507050545 | 76 | 146 | 1.7 | 5.2 | 0.00 | 0.00 | 0.00 | 40 | 1010.3 |
| 20260507045543 | 76 | 145 | 3.5 | 4.3 | 0.00 | 0.00 | 0.00 | 39 | 1010.3 |
| 20260507045043 | 76 | 143 | 2.6 | 4.3 | 0.00 | 0.00 | 0.00 | 39 | 1010.3 |
| 20260507044551 | 76 | 127 | 2.6 | 4.3 | 0.00 | 0.00 | 0.00 | 39 | 1010.4 |
| 20260507044046 | 77 | 127 | 0.9 | 5.2 | 0.00 | 0.00 | 0.00 | 38 | 1010.2 |
| 20260507043541 | 77 | 135 | 2.6 | 5.2 | 0.00 | 0.00 | 0.00 | 38 | 1010.1 |
| 20260507043041 | 77 | 0.0 | 0.0 | 0.00 | 0.00 | 0.00 | 36 | 1009.9 | |
| 20260507041521 | 77 | 90 | 2.6 | 7.8 | 0.00 | 0.00 | 0.00 | 36 | 1010.0 |
| 20260507041021 | 78 | 95 | 4.3 | 10.4 | 0.00 | 0.00 | 0.00 | 36 | 1009.9 |
| 20260507040522 | 78 | 95 | 6.1 | 10.4 | 0.00 | 0.00 | 0.00 | 35 | 1009.8 |
| 20260507040023 | 78 | 100 | 5.2 | 12.2 | 0.00 | 0.00 | 0.00 | 35 | 1009.8 |
| 20260507035519 | 78 | 79 | 6.1 | 12.2 | 0.00 | 0.00 | 0.00 | 35 | 1009.9 |
| 20260507035021 | 78 | 57 | 7.8 | 12.2 | 0.00 | 0.00 | 0.00 | 34 | 1009.6 |
| 20260507034522 | 78 | 59 | 7.0 | 10.4 | 0.00 | 0.00 | 0.00 | 34 | 1009.7 |
| 20260507034021 | 79 | 75 | 7.0 | 13.9 | 0.00 | 0.00 | 0.00 | 33 | 1009.8 |
| 20260507033520 | 79 | 78 | 8.7 | 13.9 | 0.00 | 0.00 | 0.00 | 33 | 1009.5 |
| 20260507033026 | 79 | 8.7 | 0.0 | 0.00 | 0.00 | 0.00 | 31 | 1009.3 | |
| 20260507031545 | 80 | 86 | 7.0 | 13.9 | 0.00 | 0.00 | 0.00 | 31 | 1009.4 |
| 20260507031048 | 80 | 52 | 8.7 | 13.9 | 0.00 | 0.00 | 0.00 | 30 | 1009.2 |
| 20260507030545 | 80 | 50 | 8.7 | 13.9 | 0.00 | 0.00 | 0.00 | 30 | 1009.2 |
| 20260507030046 | 80 | 82 | 7.8 | 13.0 | 0.00 | 0.00 | 0.00 | 29 | 1009.3 |
| 20260507025545 | 80 | 90 | 8.7 | 13.0 | 0.00 | 0.00 | 0.00 | 28 | 1009.4 |
| 20260507025045 | 81 | 109 | 9.6 | 13.9 | 0.00 | 0.00 | 0.00 | 27 | 1009.4 |
| 20260507024547 | 81 | 90 | 9.6 | 13.9 | 0.00 | 0.00 | 0.00 | 27 | 1009.4 |
| 20260507024044 | 81 | 81 | 7.8 | 13.9 | 0.00 | 0.00 | 0.00 | 29 | 1009.0 |
| 20260507023545 | 81 | 73 | 10.4 | 13.9 | 0.00 | 0.00 | 0.00 | 30 | 1008.9 |
| 20260507023041 | 82 | 0.0 | 0.0 | 0.00 | 0.00 | 0.00 | 29 | 1008.8 | |
| 20260507021608 | 82 | 90 | 8.7 | 15.6 | 0.00 | 0.00 | 0.00 | 29 | 1008.4 |
| 20260507021058 | 82 | 75 | 7.8 | 15.6 | 0.00 | 0.00 | 0.00 | 30 | 1008.3 |
| 20260507020558 | 83 | 77 | 9.6 | 13.9 | 0.00 | 0.00 | 0.00 | 29 | 1008.4 |
| 20260507020059 | 83 | 90 | 8.7 | 13.0 | 0.00 | 0.00 | 0.00 | 29 | 1008.3 |
| 20260507015557 | 83 | 90 | 7.8 | 13.0 | 0.00 | 0.00 | 0.00 | 29 | 1008.4 |
| 20260507015057 | 83 | 90 | 9.6 | 14.8 | 0.00 | 0.00 | 0.00 | 29 | 1008.2 |
| 20260507014558 | 83 | 60 | 8.7 | 16.5 | 0.00 | 0.00 | 0.00 | 29 | 1008.1 |
| 20260507014056 | 83 | 68 | 10.4 | 15.6 | 0.00 | 0.00 | 0.00 | 30 | 1007.9 |
| 20260507013556 | 84 | 62 | 8.7 | 12.2 | 0.00 | 0.00 | 0.00 | 30 | 1007.9 |
| 20260507013054 | 84 | 0.0 | 0.0 | 0.00 | 0.00 | 0.00 | 33 | 1007.8 | |
| 20260507011548 | 84 | 95 | 7.8 | 12.2 | 0.00 | 0.00 | 0.00 | 33 | 1007.7 |
| 20260507011044 | 84 | 81 | 7.8 | 12.2 | 0.00 | 0.00 | 0.00 | 34 | 1007.5 |
| 20260507010544 | 84 | 74 | 7.0 | 10.4 | 0.00 | 0.00 | 0.00 | 34 | 1007.4 |
| 20260507010046 | 84 | 76 | 6.1 | 10.4 | 0.00 | 0.00 | 0.00 | 35 | 1007.3 |
| 20260507005544 | 85 | 81 | 5.2 | 12.2 | 0.00 | 0.00 | 0.00 | 35 | 1007.3 |
| 20260507005044 | 85 | 85 | 7.8 | 12.2 | 0.00 | 0.00 | 0.00 | 35 | 1007.2 |
| 20260507004543 | 85 | 86 | 6.1 | 11.3 | 0.00 | 0.00 | 0.00 | 35 | 1007.1 |
| 20260507004043 | 85 | 95 | 7.8 | 13.0 | 0.00 | 0.00 | 0.00 | 35 | 1007.0 |
| 20260507003543 | 85 | 83 | 8.7 | 13.0 | 0.00 | 0.00 | 0.00 | 35 | 1007.0 |
| 20260507003042 | 85 | 80 | 11.3 | 11.3 | 0.00 | 0.00 | 0.00 | 36 | 1007.1 |
| 20260507001604 | 86 | 78 | 7.0 | 13.0 | 0.00 | 0.00 | 0.00 | 36 | 1006.8 |
| 20260507001055 | 86 | 79 | 8.7 | 13.0 | 0.00 | 0.00 | 0.00 | 36 | 1006.9 |
| 20260507000555 | 86 | 70 | 9.6 | 13.0 | 0.00 | 0.00 | 0.00 | 36 | 1006.7 |
| 20260507000058 | 86 | 59 | 7.8 | 12.2 | 0.00 | 0.00 | 0.00 | 35 | 1006.7 |
| 20260506235557 | 86 | 44 | 8.7 | 12.2 | 0.00 | 0.00 | 0.00 | 35 | 1006.7 |
| 20260506235054 | 87 | 82 | 7.8 | 13.0 | 0.00 | 0.00 | 0.00 | 35 | 1006.9 |
| 20260506234619 | 87 | 66 | 7.0 | 13.0 | 0.00 | 0.00 | 0.00 | 35 | 1006.6 |
| 20260506234054 | 87 | 62 | 9.6 | 13.0 | 0.00 | 0.00 | 0.00 | 34 | 1006.5 |
| 20260506233554 | 87 | 95 | 8.7 | 16.5 | 0.00 | 0.00 | 0.00 | 34 | 1006.3 |
| 20260506233055 | 90 | 0.0 | 0.0 | 0.00 | 0.00 | 0.00 | 29 | 1006.3 | |
| 20260506231507 | 91 | 100 | 10.4 | 15.6 | 0.00 | 0.00 | 0.00 | 29 | 1006.0 |
| 20260506231007 | 92 | 90 | 3.5 | 5.2 | 0.00 | 0.00 | 0.00 | 17 | 1005.6 |
| 20260506230506 | 92 | 100 | 0.9 | 2.6 | 0.00 | 0.00 | 0.00 | 17 | 1005.7 |
| 20260506230010 | 92 | 72 | 0.0 | 8.7 | 0.00 | 0.00 | 0.00 | 17 | 1005.8 |
| 20260506225511 | 92 | 79 | 2.6 | 8.7 | 0.00 | 0.00 | 0.00 | 17 | 1005.6 |
| 20260506225006 | 92 | 112 | 2.6 | 7.8 | 0.00 | 0.00 | 0.00 | 17 | 1005.5 |
| 20260506224507 | 92 | 141 | 0.9 | 5.2 | 0.00 | 0.00 | 0.00 | 17 | 1005.3 |
| 20260506224006 | 92 | 95 | 0.9 | 4.3 | 0.00 | 0.00 | 0.00 | 17 | 1005.2 |
| 20260506223509 | 92 | 90 | 1.7 | 7.8 | 0.00 | 0.00 | 0.00 | 17 | 1005.6 |
| 20260506223012 | 92 | 50 | 5.2 | 9.6 | 0.00 | 0.00 | 0.00 | 17 | 1005.6 |
| 20260506221538 | 93 | 123 | 6.1 | 9.6 | 0.00 | 0.00 | 0.00 | 17 | 1005.3 |
| 20260506221042 | 93 | 95 | 5.2 | 9.6 | 0.00 | 0.00 | 0.00 | 17 | 1005.2 |
| 20260506220537 | 93 | 85 | 5.2 | 9.6 | 0.00 | 0.00 | 0.00 | 17 | 1005.3 |
| 20260506220038 | 93 | 66 | 5.2 | 8.7 | 0.00 | 0.00 | 0.00 | 16 | 1005.4 |
| 20260506215536 | 93 | 129 | 4.3 | 8.7 | 0.00 | 0.00 | 0.00 | 16 | 1005.5 |
| 20260506215037 | 93 | 138 | 3.5 | 5.2 | 0.00 | 0.00 | 0.00 | 17 | 1005.3 |
| 20260506214540 | 93 | 68 | 1.7 | 9.6 | 0.00 | 0.00 | 0.00 | 17 | 1005.5 |
| 20260506214035 | 93 | 56 | 6.1 | 9.6 | 0.00 | 0.00 | 0.00 | 16 | 1005.4 |
| 20260506213538 | 93 | 64 | 5.2 | 11.3 | 0.00 | 0.00 | 0.00 | 16 | 1005.4 |
| 20260506213035 | 93 | 70 | 5.2 | 11.3 | 0.00 | 0.00 | 0.00 | 16 | 1005.4 |
| 20260506212534 | 93 | 303 | 2.6 | 7.8 | 0.00 | 0.00 | 0.00 | 16 | 1005.5 |
| 20260506212035 | 93 | 140 | 4.3 | 7.8 | 0.00 | 0.00 | 0.00 | 17 | 1005.6 |
| 20260506211534 | 93 | 82 | 3.5 | 8.7 | 0.00 | 0.00 | 0.00 | 17 | 1005.7 |
| 20260506211034 | 93 | 83 | 3.5 | 8.7 | 0.00 | 0.00 | 0.00 | 16 | 1005.9 |